Location: Zagreb
(45.8000°N, 16.0000°E)
Time: 01:04:58
(UTC+02:00)

Transit 2A Rocket - Pass Details

Date: 28 January 2022
Orbit: 592 x 909 km, 66.7° (Epoch: 26 May)

Event Time Altitude Azimuth Distance (km) Brightness Sun altitude
Rises 20:36:56 0° 276° (W) 3,537 9.3 -38.4°
Reaches altitude 10° 20:40:39 10° 298° (WNW) 2,599 8.4 -39.0°
Maximum altitude 20:44:08 15° 333° (NNW) 2,218 7.7 -39.6°
Enters shadow 20:44:49 15° 341° (NNW) 2,229 7.6 -39.7°
Drops below altitude 10° 20:47:35 10° 9° (N) 2,563 - -40.2°
Sets 20:51:13 0° 31° (NNE) 3,461 - -40.8°
